DECAYED

STARLINK-33557, 62106 (Decayed)

Orbit data source: Space-Track

STARLINK-33557, 62106 was a payload satellite owned by SpaceX/Seattle (US) in LEO that was launched on Mon, 25 Nov 2024 UTC via an FALCON 9 launch vehicle from the Air Force Eastern Test Range (AFETR). Payload-class satellites include a variety of spacecraft equipped with specific instruments for various scientific and technological missions. These include communications satellites like Starlink; space stations such as the ISS; scientific satellites like the Hubble; Earth observation satellites from companies like Planet Labs, Umbra, and HawkEye 360; GPS; miniature CubeSats for education and research; and military/defense satellites.

Not visible in the next 10 days
Identifier
62106, 2024-220U
Orbit
Decayed
Country
Flag of USUS
Related business
Manufacturer
SpaceX/Seattle
Mission
Decayed Commercial Communications
Bus & Motor
STARLINK V2MO, Unknown motor
Mass
530 kg wet, ~500 kg dry
Launch date (UTC)
2024-11-25 (2 years ago)
Launch vehicle
FALCON 9
Launch site
Air Force Eastern Test Range (AFETR)
Object type
Payload
Rocket body
Debris
Shape & HBR
Box + 2 Pan, 17.7 m
Radar Cross Section
36.964 m², Large (>1 m²)

Expand to show TLE details & history
Last TLE update: 10 months ago

TLE from 10 months ago
0 STARLINK-33557
1 62106U 24220U   25226.03201813  .04853486  90336-5  97001-3 0  9994
2 62106  42.9141 179.2851 0004724 246.8446 207.0155 16.30431281 42591
Epoch: 2025-08-14T00:46Z
TLE epoch observation values (Epoch: 2025-08-14T00:46:06.366Z)
Latitude
42.95893°
Longitude
-59.70727°
Altitude
197.168 km
Speed
7.793 km/s
True Right ascension
18h 18m 05s
True Declination
42° 46' 22"
Sunlit
Object was in full shadow at epoch
Visualization orbit readout
Latitude
Unknown
Longitude
Unknown
Altitude
Unknown
Speed
Unknown
Apparent Right ascension
Unknown
Apparent Declination
Unknown
Sunlit
N/A
Visualization observer readout
Local Sidereal Time
09:53:07
Azimuth
Unknown
Elevation
Unknown
Doppler factor
Unknown
Orbital elements
Apogee altitude
196.532 km
Perigee altitude
190.323 km
Semi-major axis
6,571.564 km
Eccentricity
0.00047
Inclination
42.9141°
RAAN
179.2851°
Arg. of periapsis
246.8446°
True anomaly
206.99092°
Mean anomaly
207.0155°
Eccentric anomaly
207.00321°
Mean motion
4.07418 °/min
Orbital period
88.36 mins
BSTAR
0.00097001
Loading maneuver chart data...
Computing Atmospheric mass density...
Loading historical data...
Loading historical data...
Loading historical data...
Loading historical data...
Loading historical data...
Loading historical data...
Loading historical data...

Documentation

Showing up to 5 results
|